When you browse on this site, cookies collect data to enhance your experience and personalize the content and advertising you see.
Visit our Privacy Policy to learn more. By continuing to use the site, you agree to this use of cookies and data.
  • En España
  • Lista de países
  • Para 7 días
  • Temperatura del agua
  • Mapa Satelital
  • El tiempo en el mapa
  • Informadores
  • user-avatar
    Iniciar sesión

    Tiempo cada hora Buenos Aires

    Hoy, 21 Julio, Domingo

    Tiempo Temperatura Precipitaciones Viento Presión Humedad
    00:00 +20°C° 0 mm 6 mps 753 mmHg 86%
    01:00 +20°C° 0 mm 6 mps 752 mmHg 85%
    02:00 +20°C° 0 mm 6 mps 752 mmHg 84%
    03:00 +20°C° 0 mm 6 mps 751 mmHg 84%
    04:00 +20°C° 0 mm 6 mps 751 mmHg 83%
    05:00 +20°C° 0 mm 6 mps 750 mmHg 83%
    06:00 +20°C° 0.2 mm 6 mps 750 mmHg 82%
    07:00 +20°C° 0.2 mm 6 mps 750 mmHg 81%
    08:00 +20°C° 0.2 mm 7 mps 750 mmHg 81%
    09:00 +22°C° 0.2 mm 7 mps 750 mmHg 74%
    10:00 +23°C° 0.2 mm 7 mps 750 mmHg 68%
    11:00 +26°C° 0.2 mm 8 mps 750 mmHg 61%
    12:00 +26°C° 0.3 mm 7 mps 750 mmHg 61%
    13:00 +26°C° 0.3 mm 7 mps 749 mmHg 61%
    14:00 +26°C° 0.3 mm 7 mps 748 mmHg 61%
    15:00 +26°C° 1.1 mm 6 mps 749 mmHg 64%
    16:00 +24°C° 1.1 mm 6 mps 750 mmHg 67%
    17:00 +25°C° 1.1 mm 5 mps 750 mmHg 70%
    18:00 +21°C° 1.7 mm 6 mps 752 mmHg 69%
    19:00 +17°C° 1.7 mm 7 mps 753 mmHg 69%
    20:00 +15°C° 1.7 mm 7 mps 754 mmHg 68%
    21:00 +14°C° 0.6 mm 7 mps 755 mmHg 63%
    22:00 +14°C° 0.6 mm 7 mps 756 mmHg 57%
    23:00 +14°C° 0.6 mm 6 mps 757 mmHg 51%

    Mañana, 22 Julio, Lunes

    Tiempo Temperatura Precipitaciones Viento Presión Humedad
    00:00 +14°C° 0 mm 6 mps 758 mmHg 49%
    01:00 +14°C° 0 mm 5 mps 758 mmHg 47%
    02:00 +14°C° 0 mm 4 mps 759 mmHg 45%
    03:00 +13°C° 0 mm 4 mps 759 mmHg 44%
    04:00 +13°C° 0 mm 4 mps 759 mmHg 43%
    05:00 +13°C° 0 mm 4 mps 760 mmHg 42%
    06:00 +13°C° 0 mm 4 mps 760 mmHg 41%
    07:00 +13°C° 0 mm 4 mps 761 mmHg 40%
    08:00 +13°C° 0 mm 4 mps 761 mmHg 40%
    09:00 +13°C° 0 mm 4 mps 762 mmHg 38%
    10:00 +13°C° 0 mm 4 mps 762 mmHg 37%
    11:00 +14°C° 0 mm 4 mps 763 mmHg 36%
    12:00 +14°C° 0 mm 4 mps 763 mmHg 37%
    13:00 +14°C° 0 mm 3 mps 763 mmHg 37%
    14:00 +14°C° 0 mm 3 mps 762 mmHg 38%
    15:00 +13°C° 0 mm 3 mps 763 mmHg 40%
    16:00 +13°C° 0 mm 3 mps 763 mmHg 43%
    17:00 +13°C° 0 mm 3 mps 764 mmHg 45%
    18:00 +12°C° 0 mm 3 mps 764 mmHg 47%
    19:00 +12°C° 0 mm 4 mps 765 mmHg 48%
    20:00 +11°C° 0 mm 4 mps 765 mmHg 49%
    21:00 +11°C° 0 mm 4 mps 765 mmHg 49%
    22:00 +11°C° 0 mm 4 mps 766 mmHg 50%
    23:00 +11°C° 0 mm 4 mps 766 mmHg 50%

    Pasado mañana, 23 Julio, Martes

    Tiempo Temperatura Precipitaciones Viento Presión Humedad
    00:00 +11°C° 0 mm 4 mps 766 mmHg 52%
    01:00 +10°C° 0 mm 4 mps 766 mmHg 53%
    02:00 +10°C° 0 mm 4 mps 766 mmHg 55%
    03:00 +10°C° 0 mm 4 mps 766 mmHg 57%
    04:00 +8°C° 0 mm 4 mps 766 mmHg 58%
    05:00 +8°C° 0 mm 4 mps 766 mmHg 60%
    06:00 +8°C° 0 mm 4 mps 767 mmHg 61%
    07:00 +9°C° 0 mm 3 mps 767 mmHg 62%
    08:00 +9°C° 0 mm 3 mps 767 mmHg 63%
    09:00 +10°C° 0 mm 3 mps 767 mmHg 60%
    10:00 +11°C° 0 mm 4 mps 768 mmHg 56%
    11:00 +11°C° 0 mm 4 mps 768 mmHg 53%
    12:00 +12°C° 0 mm 4 mps 767 mmHg 51%
    13:00 +12°C° 0 mm 3 mps 767 mmHg 48%
    14:00 +13°C° 0 mm 3 mps 766 mmHg 45%
    15:00 +12°C° 0 mm 3 mps 766 mmHg 47%
    16:00 +12°C° 0 mm 3 mps 767 mmHg 49%
    17:00 +13°C° 0 mm 2 mps 767 mmHg 51%
    18:00 +12°C° 0 mm 2 mps 767 mmHg 52%
    19:00 +12°C° 0 mm 2 mps 768 mmHg 53%
    20:00 +12°C° 0 mm 2 mps 768 mmHg 54%
    21:00 +10°C° 0 mm 3 mps 768 mmHg 53%
    22:00 +10°C° 0 mm 3 mps 768 mmHg 51%
    23:00 +9°C° 0 mm 3 mps 769 mmHg 49%

    24 Julio, Miércoles

    Tiempo Temperatura Precipitaciones Viento Presión Humedad
    00:00 +9°C° 0 mm 3 mps 769 mmHg 49%
    01:00 +8°C° 0 mm 3 mps 769 mmHg 49%
    02:00 +8°C° 0 mm 3 mps 769 mmHg 48%
    03:00 +8°C° 0 mm 3 mps 769 mmHg 48%
    04:00 +7°C° 0 mm 3 mps 769 mmHg 48%
    05:00 +7°C° 0 mm 3 mps 770 mmHg 49%
    06:00 +7°C° 0 mm 3 mps 770 mmHg 48%
    07:00 +7°C° 0 mm 3 mps 770 mmHg 48%
    08:00 +7°C° 0 mm 3 mps 771 mmHg 47%
    09:00 +8°C° 0 mm 3 mps 771 mmHg 44%
    10:00 +10°C° 0 mm 3 mps 771 mmHg 41%
    11:00 +11°C° 0 mm 3 mps 772 mmHg 38%
    12:00 +11°C° 0 mm 3 mps 771 mmHg 38%
    13:00 +13°C° 0 mm 2 mps 771 mmHg 37%
    14:00 +13°C° 0 mm 2 mps 770 mmHg 37%
    15:00 +12°C° 0 mm 3 mps 771 mmHg 40%
    16:00 +11°C° 0 mm 3 mps 771 mmHg 44%
    17:00 +11°C° 0 mm 3 mps 771 mmHg 47%
    18:00 +10°C° 0 mm 3 mps 772 mmHg 50%
    19:00 +10°C° 0 mm 3 mps 772 mmHg 53%
    20:00 +8°C° 0 mm 4 mps 773 mmHg 55%
    21:00 +8°C° 0 mm 4 mps 773 mmHg 59%
    22:00 +8°C° 0 mm 4 mps 773 mmHg 62%
    23:00 +7°C° 0 mm 4 mps 773 mmHg 66%

    25 Julio, Jueves

    Tiempo Temperatura Precipitaciones Viento Presión Humedad
    00:00 +7°C° 0 mm 4 mps 773 mmHg 68%
    01:00 +7°C° 0 mm 4 mps 773 mmHg 71%
    02:00 +7°C° 0 mm 5 mps 773 mmHg 73%
    03:00 +6°C° 0 mm 4 mps 773 mmHg 72%
    04:00 +6°C° 0 mm 4 mps 773 mmHg 71%
    05:00 +6°C° 0 mm 4 mps 773 mmHg 71%
    06:00 +6°C° 0 mm 4 mps 774 mmHg 69%
    07:00 +6°C° 0 mm 4 mps 774 mmHg 68%
    08:00 +6°C° 0 mm 4 mps 774 mmHg 66%
    09:00 +7°C° 0 mm 4 mps 774 mmHg 60%
    10:00 +8°C° 0 mm 4 mps 774 mmHg 55%
    11:00 +10°C° 0 mm 4 mps 774 mmHg 49%
    12:00 +10°C° 0 mm 4 mps 773 mmHg 49%
    13:00 +11°C° 0 mm 4 mps 773 mmHg 49%
    14:00 +11°C° 0 mm 4 mps 772 mmHg 48%
    15:00 +10°C° 0 mm 4 mps 772 mmHg 51%
    16:00 +10°C° 0 mm 4 mps 772 mmHg 53%
    17:00 +8°C° 0 mm 4 mps 772 mmHg 55%
    18:00 +8°C° 0 mm 4 mps 772 mmHg 59%
    19:00 +8°C° 0 mm 4 mps 773 mmHg 62%
    20:00 +7°C° 0 mm 4 mps 773 mmHg 66%
    21:00 +7°C° 0 mm 4 mps 773 mmHg 68%
    22:00 +7°C° 0 mm 4 mps 773 mmHg 71%
    23:00 +8°C° 0 mm 3 mps 773 mmHg 73%

    26 Julio, Viernes

    Tiempo Temperatura Precipitaciones Viento Presión Humedad
    00:00 +8°C° 0 mm 3 mps 773 mmHg 75%
    01:00 +8°C° 0 mm 3 mps 772 mmHg 76%
    02:00 +7°C° 0 mm 3 mps 772 mmHg 78%
    03:00 +7°C° 0 mm 3 mps 772 mmHg 79%
    04:00 +7°C° 0 mm 3 mps 772 mmHg 81%
    05:00 +7°C° 0 mm 3 mps 772 mmHg 82%
    06:00 +7°C° 0 mm 3 mps 772 mmHg 82%
    07:00 +8°C° 0 mm 3 mps 772 mmHg 81%
    08:00 +8°C° 0 mm 3 mps 772 mmHg 81%
    09:00 +10°C° 0 mm 3 mps 772 mmHg 73%
    10:00 +11°C° 0 mm 3 mps 772 mmHg 65%
    11:00 +13°C° 0 mm 3 mps 772 mmHg 56%
    12:00 +14°C° 0 mm 3 mps 771 mmHg 54%
    13:00 +14°C° 0 mm 3 mps 771 mmHg 51%
    14:00 +16°C° 0 mm 3 mps 770 mmHg 49%
    15:00 +14°C° 0 mm 3 mps 770 mmHg 54%
    16:00 +13°C° 0 mm 3 mps 770 mmHg 58%
    17:00 +13°C° 0 mm 3 mps 770 mmHg 63%
    18:00 +12°C° 0 mm 3 mps 770 mmHg 67%
    19:00 +12°C° 0 mm 3 mps 771 mmHg 70%
    20:00 +11°C° 0 mm 3 mps 771 mmHg 73%
    21:00 +11°C° 0 mm 3 mps 771 mmHg 76%
    22:00 +10°C° 0 mm 3 mps 771 mmHg 79%
    23:00 +10°C° 0 mm 2 mps 771 mmHg 82%
    Mostrar más